千帆星座-124(QIANFAN-124)

导读

QIANFAN-124(NORAD编号68651)是中国上海航宇数字科技有限公司千帆星座(Spacesail Constellation)组网卫星之一,属于低轨商业互联网卫星,运行于近地轨道,相比高轨卫星具备更低传输延迟、链路损耗更小的优势。 该卫星于2026年4月7日随第七批18颗千帆组网卫星,由长征八号火箭在海南商业航天发射场成功发射入轨,此次发射是千帆星座2026年首次组网发射,将进一步推进千帆星座低轨卫星互联网的建设进程,千帆星座是中国规划的两大低轨卫星互联网星座之一。

基本信息
目录编号:
68651
目录名称:
QIANFAN-124
国际标识:
2026-075R
轨道中心:
EARTH
卫星名称:
千帆星座-124
卫星全名:
千帆星座-124(QIANFAN-124)
卫星状态:
在轨 (已飞行112 天)
发射日期:
2026-04-07 UTC
国别 :
中国 (CN)
星等 :
--
轨道信息
数据来源 国际轨道数据 AOE轨道数据
星历时间 2026-07-27T21:15:37+0800
14小时前
查看轨道信息
2026-07-25T09:00:00+0800
3天前
查看轨道信息
半长轴 7446.65km 7446.652km
偏心率 0.0002453 0.000249
轨道倾角 88.992° 88.992°
近地点辐角 112.367° 111.428°
升交点赤经 316.869° 317.123°
平近点角 247.774° 284.088°
近地点 1066.686km 1066.66km
远地点 1070.34km 1070.37km
周期 106.586分钟 106.586分钟
每日圈数 13.510187 13.510183
详细信息
卫星平台:
124
覆盖范围:
全球
运营商:
上海垣信卫星科技有限公司
运营商所在国:
中国
使用方式:
暂无
卫星简介
千帆星座,也被称为“G60星链”计划,是中国版“星链”的重要组成部分,旨在打造一个由1.4万多颗低轨宽频多媒体卫星构成的庞大星座。千帆星座计划由上海垣信卫星科技有限公司负责实施,于2023年启动建设。该项目是我国第二个低轨卫星大星座,旨在通过构建庞大的卫星网络,为全球用户提供高质量的通信和宽带互联网服务。
2D轨道图
3D轨道图
轨道高度分析图
轨道倾角分析图
轨道综合分析图
查看轨道综合分析图